GW7108 Weather Reports


time (UTC)temp
F
wind
direction
speed
knots
gust
knots
rain 1hr
in
rain 24hr
in
rain mn
in
humidity
%
barometer
mb
20260508065003 50 212 2.6 5.2 0.00 0.02 0.00 92 1026.4
20260508064503 50 184 2.6 5.2 0.00 0.02 0.00 91 1026.5
20260508064003 50 158 2.6 6.1 0.00 0.02 0.00 91 1026.4
20260508063503 51 152 2.6 6.1 0.00 0.02 0.00 90 1026.5
20260508063003 51 164 1.7 4.3 0.00 0.02 0.00 90 1026.1
20260508062503 50 228 0.9 3.5 0.00 0.02 0.00 91 1026.4
20260508062003 50 239 1.7 4.3 0.00 0.02 0.00 91 1026.2
20260508061503 50 225 2.6 4.3 0.00 0.02 0.00 91 1026.4
20260508061025 50 236 2.6 4.3 0.00 0.02 0.00 91 1026.1
20260508060503 50 321 1.7 4.3 0.00 0.02 0.00 91 1026.3
20260508060025 50 283 1.7 5.2 0.00 0.02 0.00 91 1026.2
20260508055524 50 250 2.6 5.2 0.00 0.02 0.00 91 1026.3
20260508055003 50 232 2.6 5.2 0.00 0.02 0.00 91 1026.4
20260508054503 50 235 2.6 5.2 0.00 0.02 0.00 91 1026.2
20260508054003 50 198 1.7 5.2 0.00 0.02 0.00 90 1026.0
20260508053503 50 226 2.6 7.0 0.00 0.02 0.00 90 1025.8
20260508053004 50 223 2.6 7.0 0.00 0.02 0.00 90 1026.0
20260508052503 50 151 0.9 3.5 0.00 0.02 0.00 90 1025.8
20260508052003 50 20 0.9 1.7 0.00 0.02 0.00 90 1025.8
20260508051503 49 335 0.9 3.5 0.00 0.02 0.00 90 1025.8
20260508051025 50 288 0.9 6.1 0.00 0.02 0.00 90 1025.7
20260508050503 50 282 1.7 6.1 0.00 0.02 0.00 89 1025.7
20260508050003 50 296 1.7 5.2 0.00 0.02 0.00 90 1025.7
20260508045504 50 334 2.6 5.2 0.00 0.02 0.00 89 1025.7
20260508045003 50 319 2.6 5.2 0.00 0.02 0.00 89 1025.7
20260508044503 50 284 1.7 4.3 0.00 0.02 0.00 89 1025.5
20260508044003 50 292 2.6 5.2 0.00 0.02 0.00 90 1025.3
20260508043503 50 285 2.6 5.2 0.00 0.02 0.00 91 1025.8
20260508043004 49 304 2.6 7.0 0.00 0.02 0.00 91 1026.0
20260508042503 49 334 2.6 7.0 0.00 0.02 0.00 91 1026.0
20260508042003 49 311 2.6 6.1 0.00 0.02 0.00 91 1025.8
20260508041504 49 253 2.6 5.2 0.00 0.02 0.00 91 1025.8
20260508041003 49 237 1.7 5.2 0.00 0.02 0.00 92 1025.8
20260508040524 49 201 0.9 3.5 0.00 0.02 0.00 92 1026.1
20260508040003 49 189 0.9 3.5 0.00 0.02 0.00 93 1025.6
20260508035503 49 195 1.7 3.5 0.00 0.02 0.00 93 1025.8
20260508035003 49 102 1.7 4.3 0.00 0.02 0.00 93 1025.7
20260508034503 49 58 1.7 4.3 0.00 0.02 0.00 92 1026.0
20260508034003 49 35 1.7 4.3 0.00 0.02 0.00 92 1025.8
20260508033503 49 22 1.7 4.3 0.00 0.02 0.00 92 1025.6
20260508033003 49 193 1.7 3.5 0.00 0.02 0.00 92 1025.8
20260508032503 49 304 0.9 3.5 0.00 0.02 0.00 92 1025.8
20260508032003 49 308 1.7 4.3 0.00 0.02 0.00 91 1026.0
20260508031503 49 276 2.6 4.3 0.00 0.02 0.00 91 1025.6
20260508031003 49 247 2.6 4.3 0.00 0.02 0.00 91 1025.8
20260508030503 49 238 1.7 4.3 0.00 0.02 0.00 91 1025.6
20260508030003 49 49 0.9 3.5 0.00 0.02 0.00 91 1025.7
20260508025503 49 29 1.7 4.3 0.00 0.02 0.00 90 1025.4
20260508025003 49 17 1.7 4.3 0.00 0.02 0.00 90 1025.7
20260508024503 49 176 1.7 4.3 0.00 0.02 0.00 90 1025.7
20260508024003 49 182 1.7 3.5 0.00 0.02 0.00 89 1025.4
20260508023503 49 61 1.7 3.5 0.00 0.02 0.00 89 1025.5
20260508023024 49 39 1.7 3.5 0.00 0.02 0.00 88 1025.4
20260508022503 50 232 1.7 4.3 0.00 0.02 0.00 88 1025.3
20260508022003 50 328 1.7 4.3 0.00 0.02 0.00 87 1025.5
20260508021503 50 1 2.6 4.3 0.00 0.02 0.00 86 1025.4
20260508021004 50 36 1.7 4.3 0.00 0.02 0.00 85 1025.4
20260508020503 51 328 0.9 3.5 0.00 0.02 0.00 84 1025.5
20260508020003 51 229 0.9 3.5 0.00 0.02 0.00 83 1025.3
20260508015524 51 194 1.7 3.5 0.00 0.02 0.00 83 1025.1
20260508015003 51 125 0.9 3.5 0.00 0.02 0.00 85 1025.2
20260508014503 50 61 0.9 3.5 0.00 0.02 0.00 85 1025.3
20260508014003 51 135 0.9 3.5 0.00 0.02 0.00 85 1025.3
20260508013503 51 197 1.7 3.5 0.00 0.02 0.00 84 1025.3
20260508013003 51 187 1.7 3.5 0.00 0.02 0.00 84 1025.5
20260508012503 51 122 1.7 2.6 0.00 0.02 0.00 84 1025.6
20260508012003 51 75 1.7 3.5 0.00 0.02 0.00 84 1025.6
20260508011524 51 65 0.9 3.5 0.00 0.02 0.00 83 1025.7
20260508011003 52 152 0.9 1.7 0.00 0.02 0.00 82 1025.5
20260508010503 52 190 1.7 5.2 0.00 0.02 0.00 81 1025.6
20260508010003 53 187 2.6 7.8 0.00 0.02 0.00 80 1025.8
20260508005503 53 161 2.6 7.8 0.00 0.02 0.00 78 1025.8
20260508005003 53 108 1.7 4.3 0.00 0.02 0.00 80 1026.1
20260508004524 53 80 1.7 3.5 0.00 0.02 0.00 80 1025.8
20260508004003 53 156 1.7 5.2 0.00 0.02 0.00 79 1026.0
20260508003503 53 171 2.6 6.1 0.00 0.02 0.00 78 1026.2
20260508003003 53 180 3.5 7.8 0.00 0.02 0.00 79 1026.0
20260508002503 53 190 4.3 8.7 0.00 0.02 0.00 79 1026.2
20260508002004 53 199 6.1 11.3 0.00 0.02 0.00 79 1026.2
20260508001503 53 205 7.0 11.3 0.00 0.02 0.00 78 1026.2
20260508001003 54 208 7.0 11.3 0.00 0.02 0.00 78 1026.4
20260508000524 54 213 6.1 11.3 0.00 0.02 0.00 77 1026.4
20260508000003 54 214 6.1 11.3 0.00 0.02 0.00 76 1026.5
20260507235503 54 214 6.1 11.3 0.00 0.02 0.00 76 1026.5
20260507235024 54 212 6.1 9.6 0.00 0.02 0.00 76 1026.3
20260507234524 54 204 6.1 10.4 0.00 0.02 0.00 76 1026.6
20260507234003 54 204 7.0 13.0 0.00 0.02 0.00 75 1026.6
20260507233503 55 211 7.8 13.9 0.00 0.02 0.00 75 1026.8
20260507233003 55 216 8.7 15.6 0.00 0.02 0.00 74 1026.6
20260507232524 55 216 8.7 15.6 0.00 0.02 0.00 74 1026.7
20260507232003 55 217 8.7 13.9 0.00 0.02 0.00 74 1026.7
20260507231503 55 220 7.8 14.8 0.00 0.02 0.00 74 1026.8
20260507231003 55 224 8.7 14.8 0.00 0.02 0.00 74 1026.7
20260507230524 55 229 9.6 14.8 0.00 0.02 0.00 74 1026.9
20260507230025 55 232 9.6 14.8 0.00 0.02 0.00 74 1027.0
20260507225503 55 235 8.7 14.8 0.00 0.02 0.00 74 1026.9
20260507225024 55 239 8.7 14.8 0.00 0.02 0.00 74 1027.0
20260507224504 55 234 7.8 13.0 0.00 0.02 0.00 75 1027.0
20260507224003 55 232 8.7 13.9 0.00 0.02 0.00 75 1027.1
20260507223503 55 231 7.8 13.9 0.00 0.02 0.00 75 1027.2
20260507223003 55 229 7.8 13.9 0.00 0.02 0.00 75 1027.1
20260507222503 55 231 7.8 13.9 0.00 0.02 0.00 75 1027.2
20260507222003 55 232 8.7 15.6 0.00 0.02 0.00 75 1027.0
20260507221524 55 231 9.6 15.6 0.00 0.02 0.00 75 1027.3
20260507221003 55 228 10.4 18.2 0.00 0.02 0.00 76 1027.2
20260507220503 55 230 10.4 18.2 0.00 0.02 0.00 76 1027.1
20260507220004 55 233 11.3 17.4 0.00 0.02 0.00 77 1027.1
20260507215503 55 234 11.3 18.2 0.00 0.02 0.02 77 1027.2
20260507215025 55 235 11.3 18.2 0.00 0.02 0.02 77 1027.3
20260507214503 55 236 9.6 17.4 0.00 0.02 0.02 77 1027.2
20260507214003 55 238 9.6 14.8 0.00 0.02 0.02 77 1027.3
20260507213503 54 239 9.6 14.8 0.00 0.02 0.02 78 1027.3
20260507213003 54 240 9.6 14.8 0.00 0.02 0.02 77 1027.2
20260507212503 54 241 9.6 17.4 0.00 0.02 0.02 78 1027.2
20260507212003 54 239 10.4 17.4 0.00 0.02 0.02 78 1027.1
20260507211524 54 237 9.6 15.6 0.00 0.02 0.02 78 1027.2
20260507211003 54 238 9.6 14.8 0.00 0.02 0.02 78 1027.2
20260507210503 54 241 9.6 16.5 0.00 0.02 0.02 77 1027.1
20260507210003 54 239 10.4 16.5 0.00 0.02 0.02 77 1027.0
20260507205503 54 239 10.4 17.4 0.00 0.02 0.02 76 1027.0
20260507205003 54 235 11.3 17.4 0.00 0.02 0.02 75 1026.6
20260507204503 55 233 11.3 17.4 0.00 0.02 0.02 74 1026.7
20260507204003 55 235 10.4 17.4 0.00 0.02 0.02 73 1026.9
20260507203503 55 232 9.6 16.5 0.00 0.02 0.02 73 1026.8
20260507203003 55 226 9.6 16.5 0.00 0.02 0.02 72 1026.8
20260507202503 55 226 8.7 14.8 0.00 0.02 0.02 72 1026.9
20260507202024 55 232 9.6 13.9 0.00 0.02 0.02 71 1026.7
20260507201503 55 235 7.8 13.9 0.00 0.02 0.02 71 1026.7
20260507201003 55 233 6.1 10.4 0.00 0.02 0.02 73 1026.8
20260507200503 55 226 6.1 9.6 0.00 0.02 0.02 72 1026.7
20260507200024 55 223 6.1 12.2 0.00 0.02 0.02 71 1026.7
20260507195503 55 231 4.3 12.2 0.00 0.02 0.02 72 1026.5
20260507195003 55 237 5.2 11.3 0.00 0.02 0.02 73 1026.2
20260507194503 56 235 7.0 12.2 0.00 0.02 0.02 72 1026.3
20260507194003 56 225 7.8 14.8 0.00 0.02 0.02 71 1026.3
20260507193503 56 221 8.7 15.6 0.00 0.02 0.02 71 1026.2
20260507193003 56 220 8.7 15.6 0.00 0.02 0.02 70 1026.0
20260507192524 56 220 8.7 13.9 0.00 0.02 0.02 71 1025.5
20260507192003 57 218 7.8 13.9 0.00 0.02 0.02 71 1025.7
20260507191503 57 214 7.8 13.9 0.00 0.02 0.02 71 1025.7
20260507191003 57 217 9.6 16.5 0.00 0.02 0.02 71 1025.6
20260507190503 57 219 9.6 16.5 0.00 0.02 0.02 70 1025.5
20260507190004 57 210 7.8 13.9 0.00 0.02 0.02 70 1025.4
20260507185503 57 201 7.8 14.8 0.00 0.02 0.02 69 1025.5
20260507185003 57 202 7.8 14.8 0.00 0.02 0.02 69 1025.6
20260507184524 58 208 7.8 13.9 0.00 0.02 0.02 68 1025.4
20260507184003 58 208 7.8 13.9 0.00 0.02 0.02 67 1025.4
20260507183524 58 199 7.8 13.9 0.00 0.02 0.02 66 1025.2
20260507183003 59 189 7.8 13.9 0.00 0.02 0.02 65 1025.2
20260507182503 59 185 7.0 13.0 0.00 0.02 0.02 67 1025.2
20260507182003 59 187 7.0 13.0 0.00 0.02 0.02 67 1025.0
20260507181503 60 195 5.2 13.0 0.00 0.02 0.02 63 1025.2
20260507181003 61 280 3.5 9.6 0.00 0.02 0.02 58 1025.1
20260507180504 62 322 6.1 13.9 0.00 0.02 0.02 56 1024.9
20260507180003 62 320 7.0 13.9 0.00 0.02 0.02 53 1024.9
20260507175503 62 294 5.2 15.6 0.00 0.02 0.02 44 1024.7
20260507175024 61 268 6.1 15.6 0.00 0.02 0.02 49 1024.0
20260507174503 59 280 7.8 13.9 0.00 0.02 0.02 61 1024.5
20260507174003 59 289 7.8 13.9 0.00 0.02 0.02 60 1024.8
20260507173503 58 300 7.0 12.2 0.00 0.02 0.02 67 1024.8
20260507173004 58 296 7.0 13.9 0.00 0.02 0.02 67 1024.9
20260507172503 58 284 8.7 18.2 0.00 0.02 0.02 66 1025.0
20260507172003 59 287 13.0 23.5 0.00 0.02 0.02 63 1025.2
20260507171503 60 278 13.9 24.3 0.00 0.02 0.02 61 1025.3
20260507171003 63 254 10.4 24.3 0.00 0.02 0.02 55 1025.2
20260507170524 63 234 9.6 14.8 0.00 0.02 0.02 55 1025.3
20260507170024 63 213 7.8 14.8 0.00 0.02 0.02 55 1025.0
20260507165503 64 196 7.0 12.2 0.00 0.02 0.02 53 1024.7
20260507165004 64 181 7.8 14.8 0.00 0.02 0.02 54 1024.6
20260507164503 64 182 8.7 14.8 0.00 0.02 0.02 55 1024.8
20260507164003 64 185 9.6 15.6 0.00 0.02 0.02 54 1024.7
20260507163503 64 172 8.7 15.6 0.00 0.02 0.02 54 1024.6
20260507163003 64 162 7.8 13.9 0.00 0.02 0.02 50 1024.7
20260507162503 64 160 7.0 13.9 0.00 0.02 0.02 55 1024.5
20260507162003 64 161 7.0 11.3 0.00 0.02 0.02 55 1024.7
20260507161503 64 160 7.0 13.9 0.00 0.02 0.02 55 1024.7
20260507161003 64 163 7.8 13.9 0.00 0.02 0.02 55 1024.5
20260507160524 64 174 7.0 13.0 0.00 0.02 0.02 54 1024.4
20260507160003 64 181 7.8 15.6 0.00 0.02 0.02 58 1024.8
20260507155503 63 178 8.7 15.6 0.00 0.02 0.02 57 1024.6
20260507155003 63 168 7.8 13.9 0.00 0.02 0.02 58 1024.6
20260507154503 62 164 7.8 13.0 0.00 0.02 0.02 57 1024.8
20260507154004 62 161 7.8 13.0 0.00 0.02 0.02 60 1024.6
20260507153504 62 159 7.0 11.3 0.00 0.02 0.02 60 1024.4
20260507153003 62 168 6.1 12.2 0.00 0.02 0.02 59 1024.7
20260507152503 62 182 7.0 12.2 0.00 0.02 0.02 59 1024.7
20260507152003 62 178 7.0 11.3 0.00 0.02 0.02 60 1025.0
20260507151504 62 170 6.1 10.4 0.00 0.02 0.02 58 1025.1
20260507151024 62 167 4.3 8.7 0.00 0.02 0.02 59 1024.8
20260507150503 61 145 4.3 8.7 0.00 0.02 0.02 61 1025.1
20260507150004 62 141 4.3 8.7 0.00 0.02 0.02 59 1024.9
20260507145503 62 136 5.2 9.6 0.00 0.02 0.02 61 1024.9
20260507145003 62 127 6.1 11.3 0.00 0.02 0.02 60 1024.8
20260507144503 62 135 6.1 11.3 0.00 0.02 0.02 58 1024.7
20260507144024 63 135 6.1 13.0 0.00 0.02 0.02 61 1024.7
20260507143503 62 138 5.2 13.0 0.01 0.02 0.02 60 1025.1
20260507143003 63 146 5.2 10.4 0.02 0.02 0.02 58 1024.8
20260507142503 63 141 5.2 10.4 0.02 0.02 0.02 54 1024.9
20260507142003 63 141 5.2 9.6 0.02 0.02 0.02 59 1024.4
20260507141503 62 135 3.5 9.6 0.02 0.02 0.02 58 1024.8
20260507141003 62 110 2.6 5.2 0.02 0.02 0.02 60 1024.7
20260507140503 61 109 2.6 4.3 0.02 0.02 0.02 59 1024.8
20260507140003 60 126 1.7 4.3 0.02 0.02 0.02 62 1024.6
20260507135503 60 147 1.7 3.5 0.02 0.02 0.02 64 1025.0
20260507135004 60 149 0.9 2.6 0.02 0.02 0.02 66 1024.9
20260507134503 60 75 1.7 7.0 0.02 0.02 0.02 68 1024.9
20260507134024 60 28 2.6 7.0 0.02 0.02 0.02 67 1025.1
20260507133524 60 9 3.5 7.8 0.01 0.01 0.01 66 1025.1
20260507133004 59 10 5.2 9.6 0.00 0.00 0.00 65 1024.9
20260507132503 59 8 6.1 9.6 0.00 0.00 0.00 67 1025.0
20260507132003 60 5 5.2 7.8 0.00 0.00 0.00 61 1024.9
20260507131524 60 6 4.3 8.7 0.00 0.00 0.00 59 1025.3
20260507131003 61 16 5.2 10.4 0.00 0.00 0.00 54 1025.1
20260507130503 61 17 6.1 11.3 0.00 0.00 0.00 55 1025.0
20260507130024 61 14 7.8 11.3 0.00 0.00 0.00 52 1025.1
20260507125503 61 14 7.8 13.9 0.00 0.00 0.00 48 1025.4
20260507125003 61 15 7.8 13.9 0.00 0.00 0.00 48 1025.2
20260507124503 62 17 7.8 14.8 0.00 0.00 0.00 47 1025.5
20260507124003 62 25 8.7 18.2 0.00 0.00 0.00 48 1025.4
20260507123524 61 29 12.2 23.5 0.00 0.00 0.00 52 1025.4
20260507123024 62 19 13.0 23.5 0.00 0.00 0.00 53 1025.3
20260507122503 64 347 8.7 20.0 0.00 0.00 0.00 51 1025.4
20260507122003 66 318 5.2 19.1 0.00 0.00 0.00 46 1024.9
20260507121503 66 355 3.5 7.8 0.00 0.00 0.00 45 1025.1
20260507121003 66 30 2.6 8.7 0.00 0.00 0.00 46 1024.8
20260507120503 67 27 3.5 9.6 0.00 0.00 0.00 46 1024.8
20260507120004 66 31 4.3 9.6 0.00 0.00 0.00 48 1025.2
20260507115504 66 7 4.3 9.6 0.00 0.00 0.00 48 1024.9
20260507115003 67 324 4.3 9.6 0.00 0.00 0.00 43 1025.1
20260507114503 68 302 6.1 17.4 0.00 0.00 0.00 37 1025.1
20260507114003 67 288 8.7 17.4 0.00 0.00 0.00 39 1025.4
20260507113503 67 289 7.8 13.9 0.00 0.00 0.00 41 1025.3
20260507113024 67 285 7.8 14.8 0.00 0.00 0.00 41 1025.4
20260507112503 66 275 8.7 14.8 0.00 0.00 0.00 43 1025.5
20260507112003 66 278 9.6 17.4 0.00 0.00 0.00 43 1025.5
20260507111504 65 288 9.6 17.4 0.00 0.00 0.00 42 1025.5
20260507111003 65 291 10.4 17.4 0.00 0.00 0.00 40 1025.4
20260507110503 65 286 11.3 17.4 0.00 0.00 0.00 39 1025.7
20260507110003 66 286 11.3 19.1 0.00 0.00 0.00 41 1025.8
20260507105503 66 288 12.2 20.0 0.00 0.00 0.00 41 1025.8
20260507105024 66 285 11.3 20.0 0.00 0.00 0.00 40 1025.5
20260507104504 66 279 10.4 19.1 0.00 0.00 0.00 43 1025.8
20260507104003 65 262 9.6 19.1 0.00 0.00 0.00 43 1025.7
20260507103503 65 246 8.7 14.8 0.00 0.00 0.00 45 1025.8
20260507103003 64 256 9.6 14.8 0.00 0.00 0.00 47 1025.8
20260507102503 64 267 8.7 12.2 0.00 0.00 0.00 47 1026.0
20260507102003 64 269 7.0 12.2 0.00 0.00 0.00 48 1026.2
20260507101524 64 269 5.2 10.4 0.00 0.00 0.00 51 1026.3
20260507101003 64 278 3.5 7.0 0.00 0.00 0.00 51 1026.1
20260507100524 65 287 3.5 7.0 0.00 0.00 0.00 50 1026.0
20260507100003 65 283 3.5 7.0 0.00 0.00 0.00 50 1026.0
20260507095524 65 273 4.3 7.0 0.00 0.00 0.00 50 1026.0
20260507095003 65 263 3.5 7.8 0.00 0.00 0.00 49 1026.1
20260507094503 65 278 3.5 7.8 0.00 0.00 0.00 51 1025.7
20260507094003 65 277 3.5 7.0 0.00 0.00 0.00 49 1026.0
20260507093503 64 207 3.5 8.7 0.00 0.00 0.00 52 1026.0
20260507093003 64 176 3.5 8.7 0.00 0.00 0.00 54 1026.1
20260507092503 64 157 2.6 8.7 0.00 0.00 0.00 55 1026.0
20260507092003 62 145 2.6 7.0 0.00 0.00 0.00 58 1026.1
20260507091503 62 154 3.5 7.0 0.00 0.00 0.00 59 1025.7
20260507091003 62 163 4.3 7.0 0.00 0.00 0.00 60 1026.0
20260507090503 61 166 5.2 9.6 0.00 0.00 0.00 61 1026.0
20260507090024 61 163 5.2 9.6 0.00 0.00 0.00 63 1025.8
20260507085503 60 157 5.2 9.6 0.00 0.00 0.00 65 1026.0
20260507085003 60 166 5.2 9.6 0.00 0.00 0.00 66 1025.7
20260507084503 60 179 5.2 11.3 0.00 0.00 0.00 66 1026.1
20260507084003 59 175 6.1 11.3 0.00 0.00 0.00 67 1026.0
20260507083503 60 167 6.1 10.4 0.00 0.00 0.00 68 1025.5
20260507083003 59 158 7.0 11.3 0.00 0.00 0.00 70 1025.6
20260507082503 58 144 5.2 11.3 0.00 0.00 0.00 71 1026.0
20260507082003 57 124 4.3 7.8 0.00 0.00 0.00 74 1025.6
20260507081503 57 144 4.3 7.8 0.00 0.00 0.00 74 1025.6
20260507081003 57 183 4.3 11.3 0.00 0.00 0.00 74 1026.2
20260507080503 57 188 6.1 11.3 0.00 0.00 0.00 72 1026.1
20260507080003 57 184 6.1 11.3 0.00 0.00 0.00 73 1025.8
20260507075503 57 185 7.0 13.0 0.00 0.00 0.00 72 1025.8
20260507075003 57 202 8.7 16.5 0.00 0.00 0.00 73 1025.8
20260507074503 57 200 7.0 16.5 0.00 0.00 0.00 73 1025.7
20260507074024 57 180 5.2 10.4 0.00 0.00 0.00 75 1025.7
20260507073503 57 182 6.1 11.3 0.00 0.00 0.00 74 1025.8
20260507073003 57 172 6.1 12.2 0.00 0.00 0.00 76 1025.7
20260507072503 56 163 6.1 12.2 0.00 0.00 0.00 77 1025.5
20260507072003 56 164 7.0 12.2 0.00 0.00 0.00 78 1025.5
20260507071503 56 164 7.0 12.2 0.00 0.00 0.00 78 1025.5
20260507071003 56 160 6.1 11.3 0.00 0.00 0.00 78 1025.5
20260507070503 55 158 6.1 12.2 0.00 0.00 0.00 79 1025.3
20260507070005 55 162 6.1 12.2 0.00 0.00 0.00 80 1025.4
20260507065504 55 158 6.1 10.4 0.00 0.00 0.00 80 1025.2